User: anonymous   Login
Location: Unspecified
(0.0000°N, 0.0000°E)
Time: 00:45:46
(UTC+00:00)
Language:

STARLINK-30281 - Orbit

View from above orbital plane
View from above orbital plane
View from above satellite
View from above satellite

Ground track
Ground track

The orbit is defined by the following mean orbital elements,

1 57716U          26145.42014539 +.00000000 +00000-0 +10602-3 0 00007
2 57716  43.0019  44.8935 0001205 276.1886  83.8829 15.27573289    01
Epoch (UTC): 25 May 2026 10:05:00
Eccentricity: 0.0001205
inclination: 43.0019°
perigee height: 482 km
apogee height: 484 km
right ascension of ascending node: 44.8935°
argument of perigee: 276.1886°
revolutions per day: 15.27573289
mean anomaly at epoch: 83.8829°

The dashed part of the orbit path shows where the satellite is in the earth's shadow,  

DLR